Weather History for El Centro, CA

Change the Weather History Date:

Saturday, May 5, 2012

  Actual Average Record
Temperature  
Mean Temperature 77 °F -  
Max Temperature 93 °F 88 °F 102 °F (1997)
Min Temperature 61 °F 62 °F 53 °F (1999)
Cooling Degree Days 12    
Growing Degree Days 27 (Base 50)    
Moisture  
Dew Point 32 °F    
Average Humidity 20    
Maximum Humidity 34    
Minimum Humidity 7    
Precipitation  
Precipitation 0.00 in - - ()
Sea Level Pressure  
Sea Level Pressure 29.88 in    
Wind  
Wind Speed 8 mph (NW)    
Max Wind Speed 15 mph    
Max Gust Speed 17 mph    
Visibility 10 miles    
Events      
Averages and records for this station are not official NWS values.
T = Trace of Precipitation, MM = Missing Value Source: NWS Daily Summary

Daily Weather History Graph

Daily Weather History Graph

Search for Another Location

Airport:

Trip Planner

Search our weather history database for the weather conditions in past years. The results will help you decide how hot, cold, wet, or windy it might be!

Date:

Astronomy

May. 05, 2012 Rise Set
Actual Time 5:51 AM PDT 7:27 PM PDT
Civil Twilight 5:24 AM PDT 7:54 PM PDT
Nautical Twilight 4:52 AM PDT 8:26 PM PDT
Astronomical Twilight 4:19 AM PDT 9:00 PM PDT
Moon 7:24 PM PDT (5/5) 5:16 AM PDT (5/5)
Length of Visible Light 14h 29m
Length of Day
13h 36m
Full, 100% of the Moon is Illuminated
May 5
Full
May 5
Full
May 12
Last Quarter
May 20
New
May 28
First Quarter

Hourly Weather History & Observations

Time (PDT) Temp. Dew Point Humidity Pressure Visibility Wind Dir Wind Speed Gust Speed Precip Events Conditions
12:56 AM 72.0 °F 24.1 °F 17% 29.89 in 10.0 mi WNW 8.1 mph - N/A   Clear
1:56 AM - - N/A% - 10.0 mi WSW 8.1 mph - N/A   Clear
2:56 AM 64.9 °F 23.0 °F 20% 29.88 in 10.0 mi NE 9.2 mph - N/A   Clear
3:56 AM 68.0 °F 27.0 °F 21% 29.87 in 10.0 mi WNW 5.8 mph - N/A   Clear
4:56 AM 61.0 °F 30.0 °F 31% 29.88 in 10.0 mi WNW 9.2 mph - N/A   Clear
5:56 AM 64.4 °F 30.2 °F 28% 29.89 in 10.0 mi WNW 4.6 mph - N/A   Scattered Clouds
6:56 AM 64.9 °F 33.1 °F 31% 29.91 in 10.0 mi West 3.5 mph - N/A   Scattered Clouds
7:56 AM 75.0 °F 45.0 °F 34% 29.94 in 10.0 mi North 5.8 mph - N/A   Scattered Clouds
8:56 AM 78.1 °F 39.9 °F 25% 29.94 in 10.0 mi NNW 11.5 mph - N/A   Scattered Clouds
9:56 AM 82.0 °F 35.1 °F 18% 29.95 in 10.0 mi NNW 5.8 mph - N/A   Scattered Clouds
10:56 AM 84.0 °F 39.9 °F 21% 29.95 in 10.0 mi Variable 4.6 mph - N/A   Scattered Clouds
11:56 AM 87.1 °F 35.1 °F 16% 29.94 in 10.0 mi ESE 6.9 mph - N/A   Scattered Clouds
12:56 PM 89.1 °F 30.9 °F 12% 29.93 in 10.0 mi Variable 4.6 mph - N/A   Scattered Clouds
1:56 PM 89.1 °F 28.9 °F 12% 29.91 in 10.0 mi Variable 4.6 mph - N/A   Scattered Clouds
2:56 PM 91.0 °F 28.9 °F 11% 29.88 in 10.0 mi Variable 3.5 mph - N/A   Clear
3:56 PM 91.9 °F 21.9 °F 8% 29.85 in 10.0 mi North 8.1 mph 17.3 mph N/A   Clear
4:56 PM 93.0 °F 27.0 °F 9% 29.83 in 10.0 mi NE 12.7 mph - N/A   Clear
5:56 PM 91.9 °F 19.9 °F 7% 29.82 in 10.0 mi NNE 6.9 mph - N/A   Clear
6:56 PM 90.0 °F 23.0 °F 9% 29.81 in 10.0 mi NE 3.5 mph - N/A   Clear
7:56 PM 80.1 °F 37.0 °F 21% 29.83 in 10.0 mi WSW 11.5 mph - N/A   Clear
8:56 PM 77.0 °F 37.0 °F 24% 29.84 in 10.0 mi SW 13.8 mph - N/A   Clear
9:56 PM 75.9 °F 37.9 °F 25% 29.85 in 10.0 mi WSW 13.8 mph - N/A   Clear
10:56 PM 75.0 °F 37.9 °F 26% 29.86 in 10.0 mi WSW 15.0 mph - N/A   Clear
11:56 PM 72.0 °F 35.1 °F 26% 29.86 in 10.0 mi West 9.2 mph - N/A   Clear